Simultaneous Nadir Overpasses (SNOs) Predictions

Prediction of SNOs between METOP-B and TERRA Satellite Orbit:

Table of predicted SNOs for the next 14.0 days since TLE Epoch: 11/12/2016
Index Date (METOP-B) Time (METOP-B) Lat,Lon (METOP-B) SZA (METOP-B ) Date (TERRA) Time (TERRA) Lat,Lon (TERRA) SZA (TERRA ) Distance(km) Time Diff (sec)
1 11/13/2016 16:51:47 -81.29, 153.93 77.46 11/13/2016 16:52:47 -81.29, 153.84 77.44 1.57 60
2 11/13/2016 17:42:27 81.29, -38.32 102.60 11/13/2016 17:42:13 81.29, -38.46 102.58 2.36 14
3 11/16/2016 12:26:11 -81.28,-139.76 76.78 11/16/2016 12:27:05 -81.28,-139.90 76.77 2.45 54
4 11/16/2016 13:16:50 81.30, 28.33 103.33 11/16/2016 13:16:30 81.30, 28.17 103.30 2.84 20
5 11/19/2016 08:00:33 -81.29, -73.09 76.10 11/19/2016 08:01:22 -81.29, -73.14 76.08 1.02 49
6 11
